SCP
0 0 0 0 0 0 0 0 0 0 0 0 0 1 1 1 1 1 2 2 3 4 3 3 2 2 3 3 2 2 2 2 2 1 1 2 2 2 2 2 1 1 1 1 1 1 1 0 0
0 0 0 0 0 0 0 0 0 0 0 0 0 1 1 1 1 2 2 3 3 4 3 3 3 3 3 3 2 2 2 2 2 2 2 2 2 2 2 1 1 1 1 1 1 1 1 1 0
0 0 0 0 0 0 0 0 0 0 0 0 0 1 1 2 2 2 3 3 4 4 3 3 3 3 3 3 3 3 2 2 2 2 2 2 2 2 2 1 1 1 1 1 1 1 1 1 0
0 0 0 0 0 0 0 0 0 0 0 0 0 1 2 3 2 2 3 3 4 4 3 3 3 3 3 3 3 3 2 2 2 2 2 2 2 2 2 1 1 1 1 1 1 1 1 0 0
0 0 0 0 0 0 0 0 0 0 0 0 1 2 3 3 3 3 3 3 3 3 3 3 3 3 3 3 3 3 3 2 2 2 3 3 3 2 2 2 2 1 1 1 1 1 1 0 0
0 0 0 0 0 0 0 0 0 0 0 0 1 2 3 4 3 3 3 2 2 3 3 3 3 3 3 3 4 4 3 3 3 3 3 3 3 2 2 2 2 2 1 1 1 1 1 0 0
0 0 0 0 0 0 0 0 0 0 0 1 1 2 4 4 4 4 4 3 3 3 3 3 3 3 3 3 3 4 3 3 3 3 3 3 2 2 2 2 2 2 1 1 1 1 1 1 0
-0 -0 -0 0 0 0 0 0 0 0 1 1 2 3 4 4 3 3 4 4 3 3 3 3 3 3 3 3 3 3 3 3 3 3 3 2 2 2 2 2 2 1 1 1 1 1 1 1 1
-0 -0 -0 0 0 0 0 0 1 1 1 2 3 4 4 4 3 3 3 3 3 3 3 3 3 3 3 3 3 3 3 3 3 3 2 2 2 2 2 2 2 1 1 1 1 1 1 1 1
-0 0 0 0 0 0 0 0 1 1 1 3 4 5 4 4 4 4 4 4 3 3 3 3 3 3 3 3 3 3 3 3 3 3 3 3 2 2 2 2 2 2 1 1 1 1 1 1 0
-0 0 0 0 0 0 0 0 1 2 2 3 5 5 6 6 6 6 6 5 5 4 4 4 3 3 4 4 4 4 4 4 3 3 3 3 3 2 2 2 2 2 2 2 2 1 1 1 1
0 0 0 0 0 0 0 1 2 3 3 3 5 6 7 7 7 8 9 8 6 6 6 6 5 5 5 5 5 5 5 4 4 3 3 3 3 3 2 2 2 2 2 2 2 1 1 1 1
0 0 0 0 0 0 0 1 3 3 3 3 4 6 7 8 8 10 12 10 8 8 9 8 7 6 6 6 6 5 5 5 4 4 4 3 3 3 3 3 3 2 2 2 1 1 1 1 1
0 0 0 0 0 0 0 1 2 3 3 3 4 5 6 8 10 11 12 11 9 8 9 9 7 7 7 7 6 5 5 5 5 4 4 4 3 3 3 3 3 3 2 2 2 2 2 2 2
0 0 0 0 0 0 0 1 3 4 3 3 4 5 7 9 11 11 11 11 10 8 8 8 7 7 8 8 7 6 6 5 5 5 5 4 3 3 4 4 4 3 3 3 3 3 3 3 2
0 0 0 0 0 0 0 1 3 4 3 3 4 5 7 8 10 10 11 11 10 9 8 8 8 9 10 9 8 7 6 5 5 5 5 5 4 4 4 4 4 3 3 3 3 3 3 2 2
0 0 0 0 0 0 1 2 3 3 3 4 5 5 6 7 9 10 10 10 11 11 11 11 11 11 11 10 9 7 5 5 5 5 5 5 5 5 4 4 4 3 3 3 3 3 3 2 2
0 0 0 0 0 0 1 2 2 3 4 5 6 5 6 7 9 10 11 11 12 14 15 15 15 13 12 11 9 7 6 5 5 5 5 5 5 5 4 4 4 3 3 3 2 2 2 2 2
0 0 0 0 0 1 1 2 2 3 3 5 6 6 6 8 8 9 13 14 13 14 17 18 18 16 13 11 9 7 6 6 6 7 7 7 6 5 5 4 4 4 3 3 2 2 2 2 2
0 0 0 0 0 0 1 1 2 3 4 5 6 6 7 8 8 9 13 14 12 12 14 16 16 14 12 10 9 8 7 7 7 8 8 8 7 6 5 5 4 3 3 3 2 2 2 2 2
0 0 0 0 0 0 1 2 3 4 5 5 5 6 8 7 7 9 12 12 10 10 10 10 11 11 10 9 8 8 8 7 7 8 9 9 8 6 5 4 4 3 3 2 2 2 2 1 1
0 0 0 0 0 0 0 2 4 5 5 5 5 6 7 6 5 7 10 10 9 9 8 8 8 9 8 8 8 8 7 7 7 8 9 8 6 4 4 4 4 4 3 2 2 2 1 1 1
0 0 0 0 0 0 0 1 3 4 4 5 5 5 5 4 4 6 8 8 8 7 7 7 7 7 8 8 8 7 6 6 7 8 6 4 2 2 3 3 3 3 2 2 2 1 1 1 0
0 0 0 0 0 0 0 1 2 3 4 5 5 5 4 3 4 5 6 6 5 5 5 5 5 6 7 8 7 6 5 6 6 5 3 1 0 0 1 1 1 1 1 1 1 1 0 0 0
0 0 0 0 0 0 0 1 2 3 4 4 4 4 3 3 3 3 3 3 3 3 3 3 4 5 6 7 7 5 5 5 5 2 1 0 0 0 0 0 0 0 0 0 0 0 0 0 0
0 0 0 0 0 0 0 1 2 4 4 4 4 3 3 2 2 2 2 2 1 2 2 2 3 3 5 6 7 6 6 5 3 1 0 0 0 0 0 0 0 0 0 0 0 0 0 0 0
0 0 0 0 0 0 0 1 3 4 4 4 3 2 2 2 2 2 1 1 1 1 1 1 2 3 5 7 7 6 5 3 1 0 0 0 0 0 0 0 0 0 0 0 0 0 0 0 0
0 0 0 0 0 0 0 1 2 3 3 3 2 2 2 2 2 2 1 0 0 0 0 0 1 2 4 5 5 4 2 1 0 0 0 0 0 0 0 0 0 0 0 0 0 0 0 0 0
0 0 0 0 0 0 0 1 1 2 2 2 2 2 2 2 2 1 1 0 0 0 0 0 0 1 2 2 2 1 0 0 0 0 0 0 0 0 0 0 0 0 0 0 0 0 0 0 0
0 0 0 0 0 0 0 1 1 2 1 1 1 2 2 2 1 1 0 0 0 0 0 0 0 0 0 0 0 0 0 0 0 0 0 0 0 0 0 0 0 0 0 0 0 0 0 0 0
Wind_Speed
11 14 12 10 9 11 17 16 9 4 2 4 5 4 5 5 6 7 6 5 15 20 18 17 16 17 17 16 16 15 15 15 14 13 13 12 11 11 11 11 10 10 10 11 11 10 10 10 9
11 15 11 9 11 13 14 12 8 2 4 3 2 1 2 6 9 11 9 9 18 19 16 16 17 16 17 16 16 16 16 16 15 14 13 13 12 11 10 11 10 10 10 10 10 10 10 9 9
12 16 10 10 16 17 15 6 2 1 4 1 1 0 1 6 8 10 11 13 17 17 15 16 17 16 17 17 16 16 16 16 15 14 14 13 12 11 10 10 10 10 9 9 10 10 10 9 8
10 10 9 11 18 20 20 10 3 4 2 3 3 1 4 6 5 10 14 14 17 17 16 17 17 16 16 17 17 17 16 16 15 15 14 13 12 11 10 10 10 10 9 9 10 10 9 8 7
10 9 13 15 19 19 17 10 3 5 5 3 3 2 6 7 10 13 13 15 15 16 16 17 16 16 16 16 17 16 16 15 14 14 13 12 11 11 10 10 10 10 9 9 9 9 8 7 6
9 10 13 16 19 19 16 9 6 8 8 6 6 5 5 10 11 11 13 14 15 16 16 15 16 17 16 16 15 15 15 14 14 13 12 12 11 10 10 10 10 9 9 9 9 8 8 7 6
11 12 15 18 17 15 10 5 5 7 8 7 6 6 7 10 11 10 12 13 14 15 16 15 14 14 15 14 15 14 14 14 13 13 12 12 11 11 11 10 9 9 9 9 9 8 8 7 5
12 12 18 18 17 15 7 2 4 7 7 5 5 4 7 10 9 10 12 11 13 14 15 14 14 13 13 12 14 15 15 14 14 13 13 13 12 11 11 10 9 10 9 9 9 8 7 6 5
14 13 15 17 14 10 4 1 4 4 6 6 4 1 10 11 9 8 10 10 11 12 13 13 14 13 13 13 13 14 14 13 13 12 13 12 9 10 9 11 12 11 10 10 9 9 8 7 7
11 12 17 12 10 9 7 3 4 4 7 8 6 3 8 9 8 8 9 10 11 11 12 12 13 13 12 10 10 9 9 10 9 8 10 8 6 7 9 11 13 12 11 10 10 10 9 8 6
13 16 15 10 7 9 10 8 6 7 7 5 2 2 5 6 7 6 6 8 11 11 11 12 11 10 11 8 8 6 5 7 8 8 9 7 5 5 5 6 7 8 9 8 8 9 7 8 6
14 13 12 11 7 7 9 10 8 7 6 4 3 1 2 2 2 4 6 7 8 10 11 9 10 9 8 8 7 5 5 5 6 7 9 7 4 4 5 5 6 6 5 6 6 6 8 7 7
12 12 12 10 9 9 10 10 9 8 6 3 3 3 4 2 0 1 3 4 5 4 6 7 6 7 5 6 6 6 6 6 5 5 6 5 4 4 4 4 5 6 5 5 5 5 6 5 3
10 10 10 10 11 11 11 11 11 9 5 3 1 1 2 3 3 3 5 5 5 5 2 0 4 4 4 5 4 3 3 4 4 3 3 3 3 2 2 3 3 2 3 3 2 2 2 1 1
10 12 13 14 14 13 12 13 13 9 6 4 2 1 5 7 8 7 7 6 5 5 3 1 3 4 4 4 3 2 2 3 3 2 2 1 1 1 1 1 1 1 0 2 2 1 1 1 1
11 14 16 17 15 11 10 12 8 7 7 4 2 3 7 8 9 9 9 7 6 5 3 1 2 4 4 4 3 2 2 3 2 2 2 1 0 1 1 1 1 1 1 1 1 1 1 1 1
14 15 16 11 11 8 10 9 3 2 5 5 5 4 6 7 9 9 8 7 6 6 4 3 5 5 5 5 4 3 2 3 3 2 2 2 1 1 2 1 1 1 0 0 1 1 1 1 2
10 11 11 8 5 6 9 7 5 3 4 5 6 5 6 7 8 8 9 8 8 7 6 6 6 6 5 5 4 3 3 3 3 3 3 3 2 2 1 2 2 2 1 1 1 2 2 2 1
12 12 12 10 5 5 8 7 7 6 5 5 6 5 6 7 7 9 10 9 9 9 8 7 6 5 4 3 3 3 3 3 3 4 5 5 4 3 2 1 1 2 2 2 2 2 3 2 2
10 12 13 10 7 6 8 9 7 6 6 6 7 6 7 7 8 9 10 10 10 9 8 7 6 5 4 2 2 3 4 4 4 5 6 6 5 4 2 2 2 2 2 3 2 1 2 2 1
10 11 12 11 9 8 10 11 8 6 5 7 7 8 8 7 8 8 9 10 9 9 8 7 6 6 5 3 3 4 4 4 4 5 5 7 7 6 5 5 4 3 3 4 4 3 3 2 2
11 11 11 11 11 9 8 9 7 7 8 7 8 9 8 8 9 9 10 10 10 9 8 8 8 8 6 4 5 6 5 5 5 5 7 8 10 9 8 7 7 6 6 5 5 5 4 3 3
11 9 9 10 11 12 9 9 7 6 7 9 9 9 9 10 10 11 11 10 9 9 9 9 10 10 9 7 7 7 7 7 6 7 10 9 9 10 10 9 8 8 7 8 8 7 7 5 4
9 10 9 8 8 13 11 9 7 4 9 10 10 10 10 11 11 11 11 10 10 10 9 9 10 10 10 10 10 10 10 10 10 9 9 7 7 8 10 10 9 8 8 9 9 8 10 7 7
9 8 6 6 6 10 8 7 1 1 7 13 14 12 11 11 10 10 11 11 10 11 10 9 11 11 11 11 11 11 11 11 11 9 8 8 7 7 9 8 8 7 8 8 8 8 8 8 7
9 9 7 6 7 7 5 4 4 9 11 15 15 13 11 11 10 11 11 10 10 10 10 10 11 11 11 12 12 11 10 9 8 9 8 8 7 7 7 8 8 8 8 8 7 7 6 6 6
9 8 8 8 10 10 4 2 6 11 11 13 13 12 11 11 11 11 11 10 11 11 11 10 11 12 11 12 12 12 11 11 10 9 9 8 7 7 8 8 7 7 7 7 7 6 7 7 6
10 8 6 6 6 7 5 2 2 7 10 10 11 11 11 11 11 11 10 10 10 10 11 11 12 12 12 11 11 11 11 10 10 10 10 9 8 7 7 7 7 7 7 7 6 6 6 6 5
8 8 7 6 5 6 5 1 2 8 11 11 11 11 11 11 11 10 10 10 10 10 10 11 11 12 12 12 11 11 10 10 10 9 9 8 7 7 7 6 6 7 7 6 6 6 6 6 6
10 7 7 6 7 7 5 2 5 9 12 13 13 12 11 11 10 10 10 10 10 10 10 11 11 11 11 11 10 10 9 9 9 8 7 7 6 6 6 6 6 6 6 5 5 6 6 6 6
Wind_Direction
277 263 255 259 251 244 252 259 249 198 204 72 48 19 20 29 56 113 161 160 123 128 136 139 141 145 147 148 147 146 144 142 139 137 135 131 126 122 118 115 114 114 115 116 116 116 115 114 113
275 270 253 249 253 251 248 247 253 182 104 78 93 82 15 61 82 117 138 139 127 131 142 144 143 146 149 149 149 148 148 147 144 143 141 138 134 130 127 124 122 121 121 121 121 121 121 122 121
263 264 257 245 245 256 268 282 325 186 130 175 270 98 29 73 87 112 126 134 130 136 144 138 147 148 150 150 150 151 152 150 149 148 147 144 141 138 135 134 131 129 128 128 127 125 125 126 125
251 236 238 245 247 249 258 259 227 254 221 193 218 189 80 71 78 110 128 138 136 142 144 142 149 149 151 152 153 154 154 153 152 152 150 148 147 144 143 142 140 138 135 133 132 131 130 129 130
238 245 235 245 253 258 263 263 228 236 233 242 240 195 118 104 106 118 134 142 144 148 143 146 149 148 152 155 155 155 155 154 154 153 152 151 150 150 150 149 147 145 143 140 136 134 134 135 136
231 234 241 246 251 252 255 257 251 252 250 238 241 230 126 121 121 136 142 149 150 149 142 144 149 151 154 156 155 155 154 154 153 153 152 152 152 154 154 152 152 150 148 146 142 141 142 143 147
245 248 252 257 264 264 258 264 264 260 259 260 260 243 133 133 129 142 144 152 151 149 142 148 154 155 155 155 154 154 153 153 154 154 154 155 157 159 160 158 157 155 156 154 152 153 154 156 163
245 263 267 266 268 273 271 257 264 273 273 285 292 284 123 119 132 148 145 153 151 148 145 153 158 159 161 160 158 156 155 156 156 157 160 161 163 166 166 164 164 164 165 165 164 166 169 174 186
243 255 261 264 268 272 281 251 261 254 272 282 280 26 111 122 145 157 152 157 152 148 147 158 162 164 168 164 160 158 159 159 159 164 167 166 174 175 177 179 168 173 175 175 176 179 184 189 204
231 245 252 270 310 318 323 304 271 254 244 245 239 184 130 141 159 172 167 163 155 151 151 162 166 166 172 167 154 165 169 164 175 170 172 184 188 185 184 167 169 177 182 186 190 192 196 210 211
231 248 270 290 314 316 309 299 280 267 264 270 269 192 151 155 160 175 167 164 163 158 162 168 166 165 172 159 155 169 172 162 187 177 179 197 198 187 162 160 167 180 187 195 192 199 212 213 221
241 257 272 291 308 296 285 283 277 268 271 315 335 349 117 145 189 179 170 174 159 162 168 168 160 164 172 153 156 166 171 165 189 178 186 197 205 190 170 172 172 183 196 201 189 205 212 217 222
242 255 263 266 270 267 268 267 272 270 273 296 328 22 24 69 114 188 132 117 100 121 158 159 153 157 160 138 158 176 180 172 188 175 191 200 199 205 182 179 177 190 192 198 202 207 207 210 209
265 269 264 260 255 251 252 254 253 248 247 255 282 42 54 45 44 58 71 62 83 93 66 51 135 148 149 144 160 169 172 154 166 153 176 215 221 221 198 179 183 198 175 170 211 211 168 153 93
267 276 269 257 247 242 244 248 241 229 218 217 181 108 66 49 51 50 57 60 65 77 78 307 169 149 150 143 149 134 117 132 134 136 140 166 246 240 249 164 98 294 158 144 147 167 101 113 113
253 254 254 243 227 223 232 256 241 197 186 181 142 84 73 56 46 46 49 48 54 70 87 274 204 135 125 112 115 99 110 108 109 115 114 107 309 200 163 139 155 237 359 91 121 110 83 77 78
241 245 255 242 201 212 225 252 248 205 173 159 126 97 76 66 52 47 55 53 47 50 50 34 52 77 98 101 102 92 76 88 89 93 102 94 56 138 143 163 195 153 105 65 165 118 128 111 93
276 265 267 266 200 206 238 235 215 202 186 147 130 119 93 72 61 57 61 57 48 48 51 46 55 78 104 114 113 93 72 74 82 74 66 73 61 67 122 161 154 143 161 158 93 118 124 113 108
297 302 298 292 281 240 246 241 224 190 187 155 136 124 101 80 71 67 61 54 50 42 45 45 48 58 83 115 125 119 117 90 79 71 62 56 57 63 80 83 117 134 137 131 136 143 132 111 107
282 282 280 280 272 261 258 254 246 215 189 151 134 119 100 84 69 68 62 54 49 41 40 45 40 43 68 88 116 115 107 91 83 76 65 58 59 62 77 62 70 87 104 96 87 105 133 123 96
269 273 280 289 287 258 262 255 238 215 164 132 122 105 96 83 68 69 64 55 50 44 37 36 40 41 55 78 105 108 99 89 77 74 64 49 52 54 57 61 61 64 77 80 70 55 83 114 89
268 269 279 281 276 269 258 265 251 212 164 145 126 118 105 90 72 71 67 56 48 43 43 41 46 48 53 71 95 104 101 95 77 75 71 59 52 51 49 57 62 65 67 68 65 56 57 75 94
274 291 290 287 285 278 266 265 257 200 176 152 134 114 100 91 79 68 61 58 52 49 47 47 50 52 52 61 77 87 88 89 86 81 74 65 56 53 52 54 60 64 65 64 60 56 53 55 59
270 277 282 282 280 271 269 265 250 213 183 152 133 118 107 92 82 74 67 62 55 52 52 55 58 57 57 63 71 81 91 92 90 84 81 72 65 58 56 59 60 61 64 66 64 61 59 57 56
251 265 280 289 272 267 293 275 296 30 147 146 133 117 106 94 86 75 65 60 57 54 52 59 64 63 64 69 72 79 84 86 87 88 83 80 71 64 57 61 62 63 67 70 71 69 64 58 58
256 255 258 267 272 282 306 286 70 76 99 115 116 114 106 95 85 76 68 65 62 58 58 64 66 66 69 73 74 75 79 82 81 80 83 80 77 74 69 67 68 67 69 72 71 72 71 66 63
264 264 267 267 277 283 258 185 109 102 109 118 119 116 107 98 88 81 73 69 67 64 63 68 73 73 74 77 79 77 77 81 84 83 81 81 83 82 74 69 68 67 68 70 71 69 65 61 56
252 281 298 283 290 291 288 279 160 149 142 133 125 119 112 104 95 88 81 76 74 73 73 72 76 78 80 81 82 84 81 82 83 83 81 81 80 81 81 76 73 70 67 67 72 75 72 76 71
265 246 258 275 288 295 301 339 89 158 150 145 132 120 113 107 101 97 92 89 86 83 82 80 80 81 81 82 82 83 83 84 85 84 83 82 80 79 81 81 79 76 71 68 73 79 72 71 66
293 288 280 283 292 299 304 39 66 123 131 133 127 120 116 111 107 104 101 98 95 91 89 87 87 88 88 88 87 86 85 85 85 85 83 85 85 83 83 79 78 81 77 69 69 75 75 72 69